• In Deutschland
  • Länderverzeichnis
  • Für 7 Tage
  • Wassertemperatur
  • Satellitenkarten
  • Wetterkarte
  • Widgets
  • user-avatar
    Anmelden

    Stündliche Wetter Bolgatanga

    Heute, 26 Februar, Montag

    Zeit Temperatur Niederschläge Wind Luftdruck Luftfeuchtigkeit
    00:00 +34°C° 0,4 mm 3 m/S 741 mmHg 34%
    01:00 +34°C° 0,3 mm 3 m/S 740 mmHg 36%
    02:00 +32°C° 0,3 mm 2 m/S 740 mmHg 38%
    03:00 +32°C° 0,3 mm 1 m/S 740 mmHg 40%
    04:00 +31°C° 0,5 mm 1 m/S 740 mmHg 42%
    05:00 +31°C° 0,5 mm 1 m/S 741 mmHg 43%
    06:00 +31°C° 0,5 mm 1 m/S 741 mmHg 44%
    07:00 +31°C° 0,1 mm 2 m/S 742 mmHg 45%
    08:00 +31°C° 0,1 mm 2 m/S 742 mmHg 45%
    09:00 +32°C° 0,1 mm 2 m/S 742 mmHg 46%
    10:00 +34°C° 0 mm 2 m/S 742 mmHg 42%
    11:00 +36°C° 0 mm 2 m/S 742 mmHg 38%
    12:00 +37°C° 0 mm 2 m/S 742 mmHg 34%
    13:00 +38°C° 0 mm 2 m/S 741 mmHg 32%
    14:00 +39°C° 0 mm 2 m/S 741 mmHg 30%
    15:00 +39°C° 0 mm 2 m/S 740 mmHg 28%
    16:00 +39°C° 0 mm 2 m/S 740 mmHg 29%
    17:00 +39°C° 0 mm 2 m/S 740 mmHg 29%
    18:00 +38°C° 0 mm 2 m/S 740 mmHg 30%
    19:00 +38°C° 0 mm 2 m/S 740 mmHg 32%
    20:00 +37°C° 0 mm 2 m/S 741 mmHg 34%
    21:00 +37°C° 0 mm 2 m/S 741 mmHg 37%
    22:00 +36°C° 0 mm 2 m/S 741 mmHg 39%
    23:00 +35°C° 0 mm 2 m/S 741 mmHg 41%

    Morgen, 27 Februar, Dienstag

    Zeit Temperatur Niederschläge Wind Luftdruck Luftfeuchtigkeit
    00:00 +35°C° 0 mm 2 m/S 741 mmHg 43%
    01:00 +34°C° 0 mm 2 m/S 740 mmHg 45%
    02:00 +33°C° 0 mm 1 m/S 740 mmHg 47%
    03:00 +32°C° 0 mm 1 m/S 740 mmHg 48%
    04:00 +32°C° 0 mm 1 m/S 740 mmHg 49%
    05:00 +32°C° 0 mm 2 m/S 740 mmHg 50%
    06:00 +31°C° 0 mm 2 m/S 740 mmHg 51%
    07:00 +32°C° 0 mm 2 m/S 741 mmHg 49%
    08:00 +34°C° 0 mm 2 m/S 741 mmHg 47%
    09:00 +34°C° 0 mm 2 m/S 742 mmHg 45%
    10:00 +36°C° 0 mm 2 m/S 742 mmHg 41%
    11:00 +36°C° 0 mm 1 m/S 742 mmHg 36%
    12:00 +39°C° 0 mm 1 m/S 742 mmHg 32%
    13:00 +40°C° 0 mm 1 m/S 741 mmHg 29%
    14:00 +40°C° 0 mm 1 m/S 740 mmHg 26%
    15:00 +41°C° 0 mm 2 m/S 739 mmHg 24%
    16:00 +40°C° 0 mm 2 m/S 739 mmHg 24%
    17:00 +40°C° 0 mm 2 m/S 739 mmHg 24%
    18:00 +40°C° 0 mm 2 m/S 739 mmHg 24%
    19:00 +39°C° 0 mm 2 m/S 740 mmHg 25%
    20:00 +37°C° 0 mm 1 m/S 740 mmHg 27%
    21:00 +37°C° 0 mm 1 m/S 741 mmHg 28%
    22:00 +36°C° 0 mm 1 m/S 741 mmHg 30%
    23:00 +36°C° 0 mm 1 m/S 741 mmHg 31%

    übermorgen, 28 Februar, Mittwoch

    Zeit Temperatur Niederschläge Wind Luftdruck Luftfeuchtigkeit
    00:00 +33°C° 0 mm 0 m/S 740 mmHg 32%
    01:00 +32°C° 0 mm 0 m/S 740 mmHg 34%
    02:00 +34°C° 0 mm 1 m/S 739 mmHg 35%
    03:00 +33°C° 0 mm 1 m/S 739 mmHg 36%
    04:00 +33°C° 0 mm 1 m/S 739 mmHg 39%
    05:00 +33°C° 0 mm 1 m/S 740 mmHg 41%
    06:00 +32°C° 0 mm 1 m/S 740 mmHg 43%
    07:00 +34°C° 0 mm 2 m/S 741 mmHg 45%
    08:00 +34°C° 0 mm 2 m/S 742 mmHg 46%
    09:00 +35°C° 0 mm 3 m/S 743 mmHg 48%
    10:00 +36°C° 0 mm 2 m/S 742 mmHg 42%
    11:00 +38°C° 0 mm 2 m/S 742 mmHg 36%
    12:00 +40°C° 0 mm 1 m/S 742 mmHg 31%
    13:00 +40°C° 0 mm 2 m/S 741 mmHg 28%
    14:00 +41°C° 0 mm 2 m/S 740 mmHg 24%
    15:00 +42°C° 0 mm 3 m/S 739 mmHg 21%
    16:00 +42°C° 0 mm 3 m/S 739 mmHg 21%
    17:00 +42°C° 0 mm 3 m/S 739 mmHg 21%
    18:00 +40°C° 0 mm 2 m/S 739 mmHg 21%
    19:00 +40°C° 0 mm 2 m/S 740 mmHg 22%
    20:00 +39°C° 0 mm 1 m/S 740 mmHg 23%
    21:00 +35°C° 0 mm 0 m/S 741 mmHg 24%
    22:00 +34°C° 0 mm 0 m/S 741 mmHg 24%
    23:00 +34°C° 0 mm 0 m/S 741 mmHg 24%

    1 März, Donnerstag

    Zeit Temperatur Niederschläge Wind Luftdruck Luftfeuchtigkeit
    00:00 +33°C° 0 mm 0 m/S 741 mmHg 24%
    01:00 +32°C° 0 mm 0 m/S 740 mmHg 24%
    02:00 +34°C° 0 mm 1 m/S 740 mmHg 24%
    03:00 +33°C° 0 mm 1 m/S 739 mmHg 24%
    04:00 +33°C° 0 mm 1 m/S 740 mmHg 25%
    05:00 +32°C° 0 mm 1 m/S 740 mmHg 25%
    06:00 +32°C° 0 mm 2 m/S 740 mmHg 26%
    07:00 +34°C° 0 mm 2 m/S 741 mmHg 30%
    08:00 +35°C° 0 mm 3 m/S 742 mmHg 35%
    09:00 +36°C° 0 mm 4 m/S 742 mmHg 40%
    10:00 +38°C° 0 mm 3 m/S 742 mmHg 35%
    11:00 +39°C° 0 mm 3 m/S 742 mmHg 30%
    12:00 +41°C° 0 mm 2 m/S 741 mmHg 26%
    13:00 +42°C° 0 mm 3 m/S 740 mmHg 23%
    14:00 +43°C° 0 mm 3 m/S 740 mmHg 21%
    15:00 +44°C° 0 mm 3 m/S 739 mmHg 19%
    16:00 +43°C° 0 mm 3 m/S 739 mmHg 19%
    17:00 +42°C° 0 mm 3 m/S 739 mmHg 20%
    18:00 +42°C° 0 mm 3 m/S 739 mmHg 20%
    19:00 +40°C° 0 mm 2 m/S 739 mmHg 22%
    20:00 +39°C° 0 mm 2 m/S 740 mmHg 25%
    21:00 +37°C° 0 mm 1 m/S 741 mmHg 27%
    22:00 +36°C° 0 mm 1 m/S 741 mmHg 29%
    23:00 +36°C° 0 mm 1 m/S 740 mmHg 31%

    2 März, Freitag

    Zeit Temperatur Niederschläge Wind Luftdruck Luftfeuchtigkeit
    00:00 +35°C° 0 mm 1 m/S 740 mmHg 33%
    01:00 +34°C° 0 mm 1 m/S 740 mmHg 35%
    02:00 +34°C° 0 mm 1 m/S 740 mmHg 36%
    03:00 +33°C° 0 mm 1 m/S 739 mmHg 38%
    04:00 +33°C° 0 mm 1 m/S 740 mmHg 40%
    05:00 +32°C° 0 mm 1 m/S 740 mmHg 42%
    06:00 +32°C° 0 mm 1 m/S 740 mmHg 44%
    07:00 +34°C° 0 mm 2 m/S 741 mmHg 44%
    08:00 +35°C° 0 mm 3 m/S 741 mmHg 43%
    09:00 +36°C° 0 mm 3 m/S 742 mmHg 43%
    10:00 +38°C° 0 mm 3 m/S 741 mmHg 37%
    11:00 +39°C° 0 mm 2 m/S 741 mmHg 32%
    12:00 +41°C° 0 mm 1 m/S 741 mmHg 26%
    13:00 +41°C° 0 mm 2 m/S 740 mmHg 23%
    14:00 +43°C° 0 mm 3 m/S 739 mmHg 20%
    15:00 +43°C° 0 mm 3 m/S 738 mmHg 17%
    16:00 +43°C° 0 mm 3 m/S 739 mmHg 17%
    17:00 +41°C° 0 mm 2 m/S 739 mmHg 16%
    18:00 +41°C° 0 mm 2 m/S 739 mmHg 16%
    19:00 +40°C° 0 mm 1 m/S 739 mmHg 17%
    20:00 +39°C° 0 mm 1 m/S 740 mmHg 19%
    21:00 +37°C° 0 mm 1 m/S 740 mmHg 20%
    22:00 +36°C° 0 mm 1 m/S 740 mmHg 22%
    23:00 +33°C° 0 mm 0 m/S 740 mmHg 23%

    3 März, Samstag

    Zeit Temperatur Niederschläge Wind Luftdruck Luftfeuchtigkeit
    00:00 +33°C° 0 mm 0 m/S 740 mmHg 25%
    01:00 +32°C° 0 mm 0 m/S 739 mmHg 25%
    02:00 +31°C° 0 mm 0 m/S 739 mmHg 25%
    03:00 +31°C° 0 mm 0 m/S 739 mmHg 25%
    04:00 +30°C° 0 mm 0 m/S 739 mmHg 26%
    05:00 +30°C° 0 mm 0 m/S 739 mmHg 27%
    06:00 +29°C° 0 mm 0 m/S 740 mmHg 27%
    07:00 +33°C° 0 mm 1 m/S 740 mmHg 26%
    08:00 +36°C° 0 mm 2 m/S 741 mmHg 24%
    09:00 +37°C° 0 mm 2 m/S 741 mmHg 23%
    10:00 +39°C° 0 mm 2 m/S 741 mmHg 21%
    11:00 +40°C° 0 mm 2 m/S 740 mmHg 20%
    12:00 +42°C° 0 mm 2 m/S 740 mmHg 18%
    13:00 +42°C° 0 mm 2 m/S 739 mmHg 16%
    14:00 +44°C° 0 mm 3 m/S 738 mmHg 14%
    15:00 +44°C° 0 mm 3 m/S 738 mmHg 12%
    16:00 +44°C° 0 mm 3 m/S 738 mmHg 12%
    17:00 +42°C° 0 mm 2 m/S 738 mmHg 12%
    18:00 +42°C° 0 mm 2 m/S 738 mmHg 12%
    19:00 +40°C° 0 mm 2 m/S 738 mmHg 13%
    20:00 +39°C° 0 mm 1 m/S 739 mmHg 14%
    21:00 +37°C° 0 mm 1 m/S 739 mmHg 15%
    22:00 +36°C° 0 mm 1 m/S 739 mmHg 17%
    23:00 +34°C° 0 mm 0 m/S 739 mmHg 19%
    Mehr zeigen